Retour au catalogue

FALCON 9 R/B

ActifHEO
NORAD 47307·ROCKET BODY·🇺🇸 United States

Lancé Jan 8, 2021 depuis Cape Canaveral Space Force Station

Loading…

Prochains Passages (prochaines 24 heures)

TLE

FraisSource: Space-Track

Époque: Sep 14, 2026, 07:26 UTC

1 47307U 21001B   26257.31033548  .00006730  72125-6  91749-3 0  9996
2 47307  15.1327 160.9747 7820497  81.6525 351.0438  1.65770577 31632

Suivez FALCON 9 R/B en temps réel avec AllMySat

Download on the App Store